{"data":{"norad_id":67297,"epoch":"2026-05-25T03:51:41.003136Z","epoch_age_seconds":60879,"freshness":"FRESH","line1":"1 67297U 25313BB  26145.16089124  .00009755  00000+0  39602-3 0  9992","line2":"2 67297  97.3947 220.5818 0009979  83.9441 276.2934 15.24750726 22478","mean_motion":15.24750726,"eccentricity":0.0009979,"inclination_deg":97.3947,"raan_deg":220.5818,"arg_perigee_deg":83.9441,"mean_anomaly_deg":276.2934,"bstar":0.00039602,"rev_number":2247,"period_min":94.441666788228,"perigee_km":484.67881285255,"apogee_km":498.38930234931,"semimajor_km":6869.6710576009,"source":"CELESTRAK","updated_at":"2026-05-25T13:38:06.884953Z"}}